RH
49 50 48 46 46 45 45 46 47 47 46 47 46 44 44 45 44 42 41 41 39 40 40 36 33 32 25 22 25 26 26 25 23 25 25 24 24 23 24 27 30 31 34 37 38 39 42 46 51 55 58 60 61 62 62 58 55 55 54 50 46 45 45 46 47 48 47 47 50 55 56 56 59 61 60 58 56 57 58 60 63 66 69 68 68
48 47 46 45 43 42 44 45 46 47 48 48 47 45 45 45 45 44 42 42 40 40 41 35 33 31 23 21 24 26 27 27 24 25 25 24 24 24 23 26 29 31 32 34 36 36 37 41 48 53 57 58 60 60 60 58 56 56 57 55 53 52 49 47 46 46 47 49 52 55 55 57 61 63 63 63 62 61 59 60 62 64 66 66 64
45 45 45 44 43 42 44 45 45 46 47 47 47 46 45 46 47 46 44 43 40 40 41 36 34 31 22 20 22 25 26 26 26 25 24 23 24 25 25 27 28 29 31 33 35 36 36 37 40 46 51 52 56 58 60 61 61 62 62 59 56 54 53 52 51 49 48 48 51 53 54 57 61 62 63 63 64 64 62 61 61 63 63 62 61
42 42 43 44 44 43 44 45 46 46 46 47 47 47 47 47 46 44 43 43 41 39 39 37 35 30 22 19 19 22 23 24 26 26 24 23 24 26 28 28 28 27 28 30 32 36 37 37 40 43 45 45 49 53 56 59 62 64 66 66 63 59 57 56 57 57 54 49 48 49 51 54 58 59 60 60 61 61 61 60 61 62 62 61 60
38 39 41 43 44 43 43 45 46 47 47 49 50 49 49 47 44 42 42 42 41 39 38 37 36 28 19 18 18 20 21 22 24 25 23 23 25 26 26 27 27 27 28 27 29 33 35 40 48 50 44 40 42 46 50 52 55 59 62 65 66 66 64 62 60 61 62 57 51 48 48 49 51 52 54 54 55 57 57 58 59 61 62 62 61
38 39 39 40 41 41 43 46 48 48 48 50 51 51 50 48 44 42 43 43 41 40 37 35 33 25 18 19 19 20 21 21 24 26 24 24 27 28 27 27 26 26 27 27 27 28 31 36 44 46 43 41 39 42 48 48 50 53 56 59 64 67 68 69 69 68 67 62 57 53 50 48 47 47 48 48 49 51 52 54 56 59 61 62 63
41 41 40 40 39 40 42 44 45 46 47 49 50 50 51 50 46 42 43 43 41 40 35 30 29 23 19 21 21 20 22 23 25 29 27 25 29 31 32 31 30 30 29 27 28 27 26 28 32 36 37 39 39 41 44 44 46 51 54 57 62 65 66 68 71 73 72 67 63 59 55 53 50 48 48 47 46 46 47 49 52 55 58 60 62
44 43 41 40 38 38 39 39 40 42 44 47 47 49 50 49 45 43 43 43 42 39 30 25 25 21 19 21 22 21 23 25 26 30 31 30 30 32 35 36 34 35 34 32 32 31 29 26 26 26 28 32 35 38 39 38 41 47 51 55 58 62 63 63 66 69 72 71 69 66 63 61 58 54 52 50 48 47 46 46 47 49 51 55 58
46 45 42 38 36 36 37 37 38 39 41 42 43 44 46 45 43 43 44 44 42 34 26 22 23 22 20 20 21 21 23 25 25 28 32 33 32 31 34 37 36 36 37 38 38 38 39 36 31 27 27 30 33 35 35 35 38 42 45 50 54 57 59 59 60 62 64 66 68 69 70 68 66 63 60 57 54 53 52 51 50 49 49 50 52
47 46 43 39 38 36 36 36 37 38 39 39 39 39 41 42 42 42 43 43 38 29 23 21 21 21 20 21 22 23 24 25 24 27 29 31 33 34 33 34 34 34 34 36 38 39 42 42 40 38 36 37 38 37 34 33 36 37 36 42 47 52 58 59 57 57 59 60 61 64 68 71 72 71 69 65 61 59 59 58 56 55 54 53 52
46 45 43 41 39 37 37 37 36 37 37 38 37 36 37 38 39 40 39 37 31 26 21 17 17 17 20 22 23 24 24 23 24 28 29 28 32 36 36 33 31 32 32 33 33 34 37 40 41 41 38 38 39 39 37 35 34 33 31 33 36 40 50 55 53 54 56 57 58 59 62 67 72 74 72 69 64 62 61 61 60 59 59 58 56
45 44 42 41 40 38 37 37 36 36 37 38 37 34 33 33 34 32 31 30 26 21 17 15 16 17 21 23 22 23 23 22 25 29 29 28 31 35 35 32 31 32 33 33 31 30 31 34 36 36 35 33 33 34 36 38 38 37 35 34 33 34 38 44 47 48 51 55 57 57 57 61 65 69 71 71 68 66 64 63 63 62 62 62 60
43 43 42 41 40 38 36 36 35 35 36 37 34 30 28 28 29 28 28 24 19 17 15 17 19 19 21 22 21 23 23 24 26 28 29 29 33 34 31 30 29 30 32 32 30 28 27 28 29 31 32 31 31 31 33 35 37 39 40 40 39 37 36 36 38 39 44 51 55 56 56 57 59 62 65 68 70 71 70 69 68 66 64 63 62
40 42 42 42 41 38 36 35 34 32 33 32 27 25 26 26 27 28 25 18 14 16 18 21 23 22 21 21 23 25 25 26 27 29 31 32 35 33 30 30 28 26 27 28 29 28 26 26 27 27 27 27 27 28 29 31 33 35 37 40 40 41 40 37 34 34 37 42 48 53 55 55 56 57 59 60 63 66 70 72 72 70 68 65 62
39 41 41 41 40 39 37 34 30 28 28 26 23 23 24 25 27 26 21 17 17 20 20 21 24 24 22 22 25 26 26 27 28 31 33 33 32 31 33 35 30 26 24 25 27 28 27 25 24 24 24 24 23 24 25 27 31 31 31 32 34 36 37 36 36 36 37 38 42 46 50 55 56 57 57 55 56 59 61 65 68 69 70 69 66
39 40 40 40 39 37 33 29 26 25 24 23 22 22 24 26 26 22 19 19 23 25 25 23 23 24 23 23 26 28 27 28 30 31 33 33 29 29 35 35 30 27 25 23 23 26 26 24 22 22 22 20 18 20 21 23 27 28 28 28 27 28 28 29 30 32 35 36 39 41 44 50 53 54 57 57 56 57 58 60 62 63 65 68 69
38 38 39 40 38 33 28 24 24 25 25 23 22 23 24 24 22 20 22 25 27 27 27 26 23 24 25 24 28 31 30 29 29 29 31 34 31 29 32 31 28 27 25 23 23 24 25 24 22 22 21 19 16 16 17 19 21 22 23 25 23 24 25 26 27 27 29 29 30 33 34 37 39 42 48 52 53 53 55 57 57 58 60 62 65
37 37 40 39 35 30 25 23 25 27 27 24 25 26 26 25 24 25 28 32 33 31 31 32 30 29 28 28 29 30 29 28 28 29 30 32 33 33 32 28 26 24 23 24 25 24 24 24 23 23 23 22 18 17 18 18 18 18 19 19 19 21 22 23 25 25 25 25 24 24 24 25 27 30 34 37 40 44 47 50 52 55 55 57 62
38 40 40 36 31 27 26 26 27 28 27 25 26 29 29 30 32 33 34 37 40 38 38 38 36 33 32 32 33 32 30 29 29 29 28 30 33 36 34 28 24 22 23 26 26 26 26 26 26 26 26 24 22 22 22 20 20 20 20 20 20 20 20 20 20 20 20 20 20 20 19 20 20 22 23 25 28 30 33 36 40 44 46 49 55
39 40 37 32 29 28 28 28 28 29 29 29 31 34 37 39 40 40 41 44 47 47 46 44 41 38 34 33 37 37 35 33 32 31 31 32 34 35 36 33 29 27 26 28 27 26 27 27 27 27 27 27 27 27 26 24 24 24 24 23 22 21 20 20 19 18 19 18 19 19 19 19 18 18 19 19 21 22 23 25 27 29 32 35 40
39 37 33 30 28 28 29 30 31 33 34 36 39 43 45 46 46 47 48 50 55 57 56 54 53 51 45 41 41 41 40 40 37 36 37 38 38 38 39 38 35 34 33 32 30 27 27 28 28 28 28 29 30 31 30 29 29 28 28 27 25 24 23 23 22 21 20 20 20 20 20 20 19 19 19 18 18 19 19 20 20 21 22 23 25
38 34 30 29 30 30 31 34 35 37 37 39 43 45 48 49 50 53 55 55 58 60 60 60 61 60 59 56 53 48 46 46 45 42 42 42 43 43 43 41 39 38 38 37 34 29 29 32 32 32 30 31 34 35 36 35 33 32 32 31 29 27 26 26 26 24 23 22 21 21 20 20 21 21 21 20 19 19 19 19 19 20 20 20 21
35 32 30 31 33 33 34 36 36 36 37 39 40 42 46 48 50 54 56 55 56 59 61 61 61 61 62 61 59 55 52 52 52 50 47 45 46 47 47 46 44 43 43 43 42 39 39 39 37 36 34 34 36 39 40 40 38 36 35 34 32 30 28 27 26 26 24 23 23 22 22 21 21 22 22 22 22 22 21 21 20 20 20 20 20
33 33 32 33 34 35 36 37 36 35 36 37 38 41 45 48 51 52 53 51 50 52 56 59 58 58 62 62 60 58 55 54 53 51 48 47 47 48 50 50 50 50 50 51 52 53 52 47 40 38 36 35 35 37 39 40 40 38 37 35 35 33 31 29 27 26 26 25 25 24 24 24 24 23 22 22 23 23 23 22 22 21 21 20 20
34 34 32 32 32 34 36 36 36 36 35 37 40 44 47 50 52 52 51 49 46 46 50 53 53 54 59 61 59 59 56 54 52 50 49 49 48 49 50 51 53 55 57 58 61 64 63 58 49 42 39 36 35 35 36 36 36 37 37 36 35 35 33 31 28 27 27 27 27 27 26 26 27 26 24 22 22 22 23 23 23 23 23 22 21
34 31 29 30 31 34 36 38 39 37 36 38 43 46 48 50 53 51 49 48 46 45 45 47 49 51 53 53 54 55 52 52 54 53 51 51 51 52 53 54 56 59 62 63 66 70 70 67 62 55 48 42 39 37 35 35 36 37 37 36 35 33 32 31 30 29 28 27 26 27 26 25 26 26 25 24 24 24 23 23 24 24 24 24 24
32 28 28 31 33 36 39 40 39 38 38 42 45 48 49 50 52 50 47 46 45 43 42 42 44 48 48 45 47 49 48 49 53 55 54 53 52 52 52 55 58 61 63 63 65 68 68 68 67 64 59 52 48 44 40 38 38 38 38 37 36 34 32 32 31 31 31 30 28 28 28 27 25 24 25 26 26 26 25 24 24 24 24 25 26
31 31 33 34 36 38 40 39 38 38 41 44 45 46 47 48 48 46 45 45 44 42 41 40 41 45 46 45 47 47 48 49 51 54 56 54 52 50 49 50 54 59 62 62 61 62 64 64 64 63 62 59 56 52 45 40 39 39 39 39 38 37 35 33 32 32 32 33 32 30 30 29 28 27 26 25 26 27 27 27 26 25 24 24 24
34 36 37 38 40 40 39 39 40 40 41 42 44 43 44 45 44 43 43 43 42 41 40 39 38 41 44 46 49 50 50 51 51 52 54 54 51 51 50 50 54 59 62 62 60 60 60 61 62 61 60 62 62 59 52 46 44 44 44 42 42 40 38 34 32 32 33 33 33 32 31 30 29 29 27 26 25 25 26 27 28 28 27 26 25
39 40 39 40 41 39 39 42 43 42 39 39 40 40 41 41 41 40 40 41 42 40 40 39 37 37 40 42 46 50 52 53 51 51 52 52 50 50 52 53 56 61 62 62 61 61 61 60 60 60 61 63 65 63 58 53 49 48 46 46 44 41 38 35 33 33 34 34 35 35 35 34 32 30 30 28 26 25 25 25 27 29 31 31 29
43 41 40 41 41 40 43 45 44 40 38 37 37 39 39 38 38 39 39 40 41 40 40 40 38 37 38 39 42 46 50 51 50 50 51 51 51 52 54 55 59 64 64 64 65 64 63 60 57 58 60 64 66 65 61 57 52 47 44 44 44 41 38 35 35 35 35 36 37 38 38 38 36 34 32 30 30 29 29 28 28 29 30 32 32
42 41 40 41 41 43 44 43 41 39 37 38 39 39 38 37 37 37 38 39 40 40 40 40 40 40 39 39 41 43 44 46 48 48 49 50 50 52 54 54 57 61 61 62 65 63 60 58 56 56 59 63 66 65 62 60 57 52 46 43 44 45 43 40 37 36 36 36 36 37 37 38 38 37 35 35 34 34 34 34 34 33 33 32 32
41 40 39 41 42 42 40 40 40 38 37 39 41 41 40 38 37 37 37 38 39 39 40 41 42 42 41 41 43 44 43 44 46 48 49 50 49 50 52 53 54 56 56 58 61 61 57 55 55 56 58 63 66 67 65 64 62 57 51 47 46 46 45 42 40 38 37 36 36 36 36 36 36 36 37 38 38 38 38 37 38 38 38 37 36
39 39 39 40 39 38 38 38 39 39 39 40 42 44 44 41 38 37 37 38 39 40 40 41 43 44 46 47 49 50 47 45 48 52 53 54 53 52 54 56 57 57 57 59 61 60 57 55 55 55 57 61 66 68 68 68 67 63 58 54 52 50 47 45 42 40 38 38 39 39 38 39 39 39 39 39 39 40 40 40 39 39 39 39 39
38 38 38 37 36 36 38 38 39 41 42 43 45 47 47 45 41 38 37 37 38 40 41 42 44 49 53 53 54 54 50 49 54 58 58 58 57 57 58 61 62 61 60 61 61 60 58 57 57 56 57 61 66 69 68 66 67 68 65 62 59 57 53 50 47 44 42 43 45 46 44 42 41 40 40 39 38 39 39 39 39 38 38 39 39
36 36 36 35 35 36 38 39 42 45 46 47 48 50 49 48 46 43 40 38 37 40 41 44 50 55 58 58 57 57 54 55 61 63 62 62 60 59 61 62 62 61 62 63 62 60 61 62 60 59 59 62 65 69 68 67 67 69 69 66 64 62 58 55 53 50 49 50 53 54 51 46 43 40 38 37 37 37 37 38 38 37 37 37 37
35 34 34 35 35 37 38 41 44 46 48 48 48 50 50 51 51 50 47 44 42 42 43 47 53 57 59 59 61 62 58 57 63 66 64 63 61 60 62 64 63 63 65 65 63 62 63 64 63 63 62 61 63 67 69 70 70 71 72 69 65 64 63 62 59 56 55 56 59 60 57 52 48 44 41 39 38 39 39 39 39 39 37 35 34
34 34 35 36 36 36 38 41 43 44 45 46 46 48 51 54 55 55 53 51 50 49 48 50 54 56 56 56 60 62 57 55 61 65 64 64 63 63 63 65 66 67 66 66 66 66 65 64 64 64 63 61 62 66 70 71 73 75 75 72 68 68 69 69 66 63 62 62 62 61 59 55 52 49 46 43 39 37 37 37 38 38 37 34 31
34 35 36 37 36 37 37 38 40 42 44 45 47 50 54 57 59 59 58 57 58 57 55 54 55 55 53 54 58 60 56 55 61 66 67 67 66 64 62 63 66 67 66 67 69 69 67 66 66 64 63 63 64 67 69 71 74 78 79 78 76 74 73 71 68 66 65 64 61 59 57 55 52 50 48 44 39 36 34 33 33 33 32 30 28
34 35 36 37 38 38 38 39 40 42 45 48 51 53 56 58 58 57 58 59 61 62 61 60 59 56 53 54 58 60 59 61 66 69 71 71 70 65 59 59 62 63 65 69 71 70 69 69 68 66 64 66 68 70 70 71 76 81 85 85 83 80 76 72 68 66 64 61 58 56 55 52 48 44 41 38 35 33 32 32 31 31 31 30 29
34 35 36 38 40 41 42 42 43 45 49 52 53 54 55 56 55 55 56 59 61 63 65 65 62 57 53 52 55 61 67 71 72 71 72 73 71 65 58 57 59 61 65 69 72 72 71 70 69 68 68 69 71 72 72 74 78 82 85 86 85 85 83 78 71 68 66 62 59 56 55 53 46 40 36 34 33 33 33 33 33 33 33 33 32
34 35 38 40 43 44 44 44 45 48 51 53 54 54 53 54 55 57 59 61 62 63 64 67 65 58 52 50 53 63 74 78 76 73 70 70 69 64 58 55 57 60 65 70 72 73 72 71 70 69 70 71 71 72 72 73 78 82 84 85 84 85 85 81 72 66 64 62 58 55 56 52 43 37 35 34 34 35 35 34 35 35 35 37 37
35 38 42 44 45 45 45 44 46 49 52 53 53 52 52 55 58 61 61 62 66 65 62 65 66 59 52 48 52 65 76 77 75 72 68 67 68 63 55 51 54 62 68 69 71 72 71 70 70 70 70 70 69 71 72 72 78 82 83 82 80 79 80 77 69 62 60 61 58 55 53 47 39 35 35 36 35 36 36 35 36 37 39 39 39
38 43 47 49 48 48 47 47 49 51 53 53 51 50 53 56 59 60 60 64 71 67 61 65 66 57 50 48 52 64 73 72 69 66 63 63 64 59 51 50 56 63 65 65 67 70 70 70 71 70 69 69 70 73 74 75 78 81 80 77 73 72 72 70 67 62 58 57 54 48 43 39 36 36 36 36 36 36 36 37 37 38 39 39 39
41 46 48 49 50 49 49 49 52 55 55 52 51 53 57 57 59 63 66 69 69 63 60 65 64 54 51 52 55 62 66 65 61 59 57 59 60 56 52 54 58 60 61 63 67 68 68 69 70 68 69 69 70 74 78 80 79 77 75 72 70 71 70 67 63 55 49 47 43 39 37 36 37 37 36 36 37 37 37 38 38 39 39 39 39
44 46 47 49 49 47 49 52 55 56 54 52 54 57 58 59 62 66 70 69 62 56 55 59 58 54 54 57 60 62 63 61 59 56 56 58 57 55 54 57 60 61 64 66 67 67 67 68 68 68 69 69 69 74 80 81 77 73 72 71 71 69 65 59 53 46 42 41 39 37 37 37 37 37 36 37 39 40 40 39 39 39 38 38 38
46 46 46 47 46 47 51 55 57 56 54 54 58 60 60 62 64 66 68 65 58 52 51 52 54 57 58 60 64 66 63 60 60 60 58 56 56 57 59 61 64 67 68 66 66 67 69 68 68 68 69 69 70 73 77 76 72 70 68 67 63 59 54 49 44 41 40 40 39 39 39 39 39 39 40 41 42 42 41 40 39 38 36 35 35
48 48 48 47 47 49 54 58 58 56 55 56 61 63 63 64 65 66 68 65 59 53 48 49 56 61 61 61 64 66 64 61 61 61 58 55 58 61 62 64 66 67 67 65 66 67 67 66 66 68 70 70 69 68 68 66 64 62 60 58 55 51 47 44 41 41 40 40 40 41 41 42 43 44 44 44 42 41 40 38 35 32 30 30 30
51 50 49 48 50 54 57 58 58 55 55 59 63 63 63 64 65 66 66 63 60 53 47 50 59 64 62 61 63 65 65 61 59 57 55 57 60 61 61 63 64 64 63 62 61 62 63 64 66 68 69 68 65 63 61 59 58 56 56 54 51 47 45 43 43 42 42 42 43 43 43 45 45 45 44 41 39 36 35 32 31 31 31 31 33
49 50 49 50 54 57 58 57 55 54 56 60 62 63 63 63 63 63 62 62 61 54 47 50 60 64 63 63 64 65 64 59 55 55 55 57 58 57 57 59 61 61 60 58 58 60 63 64 65 65 63 62 62 60 59 58 58 57 54 51 48 47 46 45 46 44 42 44 46 46 45 45 44 42 40 36 33 32 31 32 35 37 36 35 35
49 50 51 54 57 57 58 57 54 55 58 60 62 63 62 61 60 60 61 63 59 52 48 50 57 62 63 64 66 65 60 56 55 55 54 54 53 54 55 58 60 60 59 59 61 62 62 60 57 56 56 57 58 57 57 58 58 55 53 50 49 49 48 47 46 44 44 46 49 47 44 42 41 39 35 32 32 34 36 39 40 39 36 34 34